Starlink 11368

operational
NORAD ID: 61583 Int'l Des: 2024-187 Owner: SPXS Country: US Constellation: starlink
LEOCIRCULAR

Über Starlink 11368

Beschreibung wird geladen...

Live-Position

3D-Globus wird geladen...

Nächste Überflüge

Höhenverlauf

Altitude vs Time

uPlot chart will show altitude changes over time

Zweizeiliger Elementsatz

1 61583U 24187K 25354.14585600 -.00001964 00000-0 -11348-4 0 9996
2 61583 53.1592 328.6248 0001377 91.3604 268.7571 15.69713280 68208
Epoch: 20. Dez. 2025 • Age: 13 hours

Aktueller Status

Höhe 363.4 km
Geschwindigkeit 7.70 km/s
Subsatellitenpunkt 44.37°N, 126.27°E
Startdatum 18. Okt. 2024
Alter 1.1 years
Typ internet

Technische Details

Klassifizierung Payload
Masse 960.00 kg
Trockenmasse 910.00 kg
Gesamtmasse 960.00 kg
Länge 0.30 m
Durchmesser 4.10 m
Spannweite 29.00 m
Form Box + pan
Hersteller SPXS
Bus-Typ Starlink V2MD
Phasenstatus In Orbit
Besitzer/Staat SPXS/US

Große Konstellationen

Loading constellations...